Torna al catalogo

STARLINK-32732

AttivoComunicazioniVLEO
NORAD 62488·PAYLOAD·🇺🇸 United States

Lanciato Jan 6, 2025 da Cape Canaveral Space Force Station

Loading…

Prossimi Passaggi (prossime 24 ore)

TLE

AggiornatoSource: CelesTrak SupGP

Epoca: Sep 15, 2026, 02:10 UTC

1 62488C 25003B   26258.09076389  .00037541  00000+0  13596-2 0  2586
2 62488  43.0025 298.9581 0001262 264.2643  48.6328 15.27563177    10

Traccia STARLINK-32732 in tempo reale con AllMySat

Download on the App Store